COSMOS 1275 DEB, 12656

Orbit data source: Space-Track

COSMOS 1275 DEB, 12656 is space debris in LEO originally from a launch on Thu, 04 Jun 1981 UTC launched from the Plesetsk Missile And Space Complex (PKMTR). Debris objects in space refer to the collection of defunct objects orbiting the Earth. Examples of debris include non-operational satellites, rocket bodies, and fragments generated from explosions, collisions, or faulty payload assembly.

Loading next visibility...
Identifier
12656, 1981-053L
Orbit
LEO
Country
Flag of CISCIS
Related business
Manufacturer
Unknown
Mission
Spacecraft
Bus & Motor
Unknown
Mass
Unknown
Launch date (UTC)
1981-06-04 (44 years ago)
Launch vehicle
Unknown
Launch site
Plesetsk Missile And Space Complex (PKMTR)
Object type
Payload
Rocket body
Debris
Shape & HBR
Unknown shape, 0.3 m
Radar Cross Section
Medium (>0.1 m² and <1 m²)

Expand to show TLE details & history
Last TLE update: 12 hours ago

TLE from 12 hours ago
0 COSMOS 1275 DEB
1 12656U 81053L   25297.33239138  .00001038  00000-0  79521-3 0  9993
2 12656  82.9614 231.9234 0026818  40.3764  77.1089 13.92249408235773
Epoch: 2025-10-24T07:58Z
TLE epoch observation values (Epoch: 2025-10-24T07:58:38.615Z)
Latitude
61.49842°
Longitude
-113.78955°
Altitude
926.966 km
Speed
7.396 km/s
True Right ascension
02h 35m 24s
True Declination
61° 21' 26"
Sunlit
Object was in full shadow at epoch
Visualization orbit readout
Latitude
Unknown
Longitude
Unknown
Altitude
Unknown
Speed
Unknown
Apparent Right ascension
Unknown
Apparent Declination
Unknown
Sunlit
N/A
Visualization observer readout
Local Sidereal Time
15:29:44
Azimuth
Unknown
Elevation
Unknown
Doppler factor
Unknown
Orbital elements
Apogee altitude
937.449 km
Perigee altitude
898.316 km
Semi-major axis
7,296.02 km
Eccentricity
0.00268
Inclination
82.9614°
RAAN
231.9234°
Arg. of periapsis
40.3764°
True anomaly
77.40869°
Mean anomaly
77.1089°
Eccentric anomaly
77.25877°
Mean motion
3.48268 °/min
Orbital period
103.37 mins
BSTAR
0.00079521
Loading maneuver chart data...
Computing Atmospheric mass density...

Documentation

Showing up to 5 results
|